Location: Newark
(43.4306°N, 0.3089°E)
Time: 07:42:20
(UTC+00:00)

Vanguard 3 - Pass Details

Date: 01 September 2019
Orbit: 508 x 3263 km, 33.4° (Epoch: 21 September)

Event Time Altitude Azimuth Distance (km) Brightness Sun altitude
Rises 10:32:08 0° 194° (SSW) 7,213 12.3 50.1°
Reaches altitude 10° 10:39:54 10° 177° (S) 6,038 12.3 50.9°
Maximum altitude 10:49:42 17° 145° (SE) 4,976 12.2 51.7°
Drops below altitude 10° 10:57:51 10° 111° (ESE) 4,941 11.7 52.4°
Sets 11:03:00 0° 93° (E) 5,448 11.6 52.8°
